Location: Newark
(40.7360°N, 74.1730°W)
Time: 12:35:00
(UTC-04:00)

ISS - All Passes

Search period start: 01 April 2015 00:00
Search period end: 11 April 2015 00:00
Orbit: 396 x 405 km, 51.6° (Epoch: 01 April)

Date Brightness Start Highest point End Pass type
(mag) Time Alt. Az. Time Alt. Az. Time Alt. Az.
01 Apr - 00:34:17 10° NW 00:36:13 15° NNW 00:38:08 10° NNE night (unlit)
01 Apr - 02:11:58 10° NNW 02:13:38 13° N 02:15:19 10° NE night (unlit)
01 Apr - 03:47:47 10° NW 03:50:47 33° NNE 03:53:46 10° E visible
01 Apr - 05:24:17 10° WNW 05:27:07 28° SW 05:29:56 10° SSE visible
01 Apr - 22:02:24 10° SW 22:05:39 86° NW 22:08:55 10° NE night (unlit)
01 Apr - 23:40:03 10° WNW 23:42:26 18° NNW 23:44:49 10° NNE night (unlit)
02 Apr - 01:18:24 10° NNW 01:19:49 12° N 01:21:14 10° NNE night (unlit)
02 Apr - 02:54:29 10° NNW 02:57:07 22° NNE 02:59:45 10° ENE night (unlit)
02 Apr - 04:30:32 10° WNW 04:33:44 59° SW 04:36:54 10° SE visible
02 Apr - 21:09:03 10° SSW 21:12:10 45° SE 21:15:19 10° ENE visible
02 Apr - 22:45:54 10° W 22:48:42 25° NNW 22:51:30 10° NE night (unlit)
03 Apr - 00:24:28 10° NNW 00:25:57 12° N 00:27:26 10° NNE night (unlit)
03 Apr - 02:01:09 10° NNW 02:03:21 17° NNE 02:05:33 10° ENE night (unlit)
03 Apr - 03:36:59 10° NW 03:40:14 68° NE 03:43:26 10° ESE night (unlit)
03 Apr - 05:14:44 10° WSW 05:16:16 13° SW 05:17:41 10° SSW visible
03 Apr - 20:16:08 10° S 20:18:45 23° SE 20:21:24 10° E visible
03 Apr - 21:51:54 10° WSW 21:55:01 40° NNW 21:58:06 10° NE visible
03 Apr - 23:30:14 10° NW 23:32:04 14° N 23:33:54 10° NNE night (unlit)
04 Apr - 01:07:44 10° NNW 01:09:29 14° N 01:11:15 10° NE night (unlit)
04 Apr - 02:43:32 10° NW 02:46:35 37° NNE 02:49:38 10° E night (unlit)
04 Apr - 04:20:09 10° WNW 04:22:53 25° SW 04:25:33 10° S night (unlit)
04 Apr - 19:24:11 10° SSE 19:25:20 12° SE 19:26:36 10° ESE daylight
04 Apr - 20:58:07 10° WSW 21:01:21 75° NW 21:04:37 10° NE visible
04 Apr - 22:35:54 10° WNW 22:38:12 17° NNW 22:40:28 10° NNE visible
05 Apr - 00:14:08 10° NNW 00:15:35 12° N 00:17:02 10° NNE night (unlit)
05 Apr - 01:50:07 10° NNW 01:52:50 24° NNE 01:55:34 10° E night (unlit)
05 Apr - 03:26:14 10° WNW 03:29:23 50° SW 03:32:31 10° SE night (unlit)
05 Apr - 20:04:35 10° SW 20:07:46 53° SE 20:10:58 10° ENE visible
05 Apr - 21:41:37 10° W 21:44:20 24° NNW 21:47:03 10° NNE visible
05 Apr - 23:20:10 10° NNW 23:21:37 12° N 23:23:04 10° NNE visible
06 Apr - 00:56:42 10° NNW 00:58:59 18° NNE 01:01:17 10° ENE night (unlit)
06 Apr - 02:32:33 10° NW 02:35:48 79° NE 02:39:02 10° ESE night (unlit)
06 Apr - 04:10:51 10° WSW 04:11:48 11° SW 04:12:36 10° SW night (unlit)
06 Apr - 19:11:27 10° SSW 19:14:13 26° SE 19:17:01 10° ENE daylight
06 Apr - 20:47:28 10° W 20:50:32 36° NNW 20:53:35 10° NE visible
06 Apr - 22:25:52 10° NW 22:27:37 14° N 22:29:22 10° NNE visible
07 Apr - 00:03:12 10° NNW 00:05:02 14° N 00:06:54 10° NE night (unlit)
07 Apr - 01:38:59 10° NW 01:42:05 41° NNE 01:45:11 10° ESE night (unlit)
07 Apr - 03:15:45 10° W 03:18:19 21° SW 03:20:50 10° S night (unlit)
07 Apr - 18:19:05 10° SSE 18:20:42 13° SE 18:22:26 10° E daylight
07 Apr - 19:53:31 10° WSW 19:56:46 66° NW 20:00:01 10° NE visible
07 Apr - 21:31:26 10° WNW 21:33:38 17° NNW 21:35:49 10° NNE visible
07 Apr - 23:09:31 10° NNW 23:11:02 13° N 23:12:32 10° NNE visible
08 Apr - 00:45:28 10° NW 00:48:15 26° NNE 00:51:03 10° E night (unlit)
08 Apr - 02:21:39 10° WNW 02:24:45 43° SW 02:27:49 10° SSE night (unlit)
08 Apr - 18:59:50 10° SW 19:03:03 62° SE 19:06:17 10° ENE daylight
08 Apr - 20:37:02 10° WNW 20:39:40 22° NNW 20:42:19 10° NNE visible
08 Apr - 22:15:32 10° NNW 22:16:58 12° N 22:18:24 10° NNE visible
08 Apr - 23:51:56 10° NNW 23:54:19 19° NNE 23:56:43 10° ENE night (unlit)
09 Apr - 01:27:50 10° NW 01:31:05 89° NE 01:34:18 10° SE night (unlit)
09 Apr - 18:06:31 10° SSW 18:09:23 30° SE 18:12:19 10° ENE daylight
09 Apr - 19:42:44 10° W 19:45:45 33° NNW 19:48:45 10° NE daylight
09 Apr - 21:21:12 10° NW 21:22:53 13° N 21:24:33 10° NNE visible
09 Apr - 22:58:21 10° NNW 23:00:17 15° NNE 23:02:14 10° NE visible
10 Apr - 00:34:08 10° NW 00:37:17 46° NNE 00:40:25 10° ESE night (unlit)
10 Apr - 02:11:03 10° W 02:13:27 19° SW 02:15:48 10° S night (unlit)
10 Apr - 17:13:50 10° SSE 17:15:46 15° SE 17:17:48 10° E daylight
10 Apr - 18:48:38 10° WSW 18:51:52 58° NNW 18:55:06 10° NE daylight
10 Apr - 20:26:40 10° NW 20:28:47 16° NNW 20:30:53 10° NNE visible
10 Apr - 22:04:37 10° NNW 22:06:10 13° N 22:07:44 10° NE visible
10 Apr - 23:40:30 10° NW 23:43:22 28° NNE 23:46:14 10° E visible
